Time,TemperatureF,DewpointF,PressureIn,WindDirection,WindDirectionDegrees,WindSpeedMPH,WindSpeedGustMPH,Humidity,HourlyPrecipIn,Conditions,Clouds,dailyrainin,SoftwareType,DateUTC
2013-01-31 00:03:00,38.0,34.0,28.35,WNW,284,6.0,12.0,85,0.04,,,0.50,,2013-01-31 05:03:00,
2013-01-31 00:11:00,38.0,34.0,28.35,WNW,284,6.0,12.0,85,0.04,,,0.50,,2013-01-31 05:11:00,
2013-01-31 00:22:00,37.0,34.0,28.35,West,277,8.0,15.0,87,0.00,,,0.54,,2013-01-31 05:22:00,
2013-01-31 00:32:00,37.0,34.0,28.35,West,277,8.0,15.0,87,0.00,,,0.54,,2013-01-31 05:32:00,
2013-01-31 00:42:00,36.0,32.0,28.38,West,265,8.0,12.0,86,0.00,,,0.54,,2013-01-31 05:42:00,
2013-01-31 00:52:00,36.0,32.0,28.38,West,265,8.0,12.0,86,0.00,,,0.54,,2013-01-31 05:52:00,
2013-01-31 01:01:00,36.0,32.0,28.38,West,265,8.0,12.0,86,0.00,,,0.54,,2013-01-31 06:01:00,
2013-01-31 01:10:00,36.0,32.0,28.38,West,265,8.0,12.0,86,0.00,,,0.54,,2013-01-31 06:10:00,
2013-01-31 09:03:00,25.0,15.0,28.65,WNW,292,4.0,7.0,66,0.00,,,0.54,,2013-01-31 14:03:00,
2013-01-31 09:11:00,25.0,15.0,28.65,WNW,292,4.0,7.0,66,0.00,,,0.54,,2013-01-31 14:11:00,
2013-01-31 09:22:00,25.0,11.0,28.68,SW,231,6.0,12.0,54,0.00,,,0.41,,2013-01-31 14:22:00,
2013-01-31 09:32:00,25.0,11.0,28.68,West,261,7.0,11.0,54,0.00,,,0.41,,2013-01-31 14:32:00,
2013-01-31 09:42:00,25.0,11.0,28.68,West,261,7.0,11.0,54,0.00,,,0.41,,2013-01-31 14:42:00,
2013-01-31 09:52:00,25.0,11.0,28.68,WNW,288,4.0,12.0,55,0.00,,,0.41,,2013-01-31 14:52:00,
2013-01-31 10:03:00,25.0,14.0,28.68,NW,312,5.0,10.0,62,0.00,,,0.41,,2013-01-31 15:03:00,
2013-01-31 10:12:00,25.0,14.0,28.68,NW,312,5.0,10.0,62,0.00,,,0.41,,2013-01-31 15:12:00,
2013-01-31 10:23:00,25.0,15.0,28.68,West,270,6.0,11.0,64,0.00,,,0.37,,2013-01-31 15:23:00,
2013-01-31 10:32:00,27.0,16.0,28.68,WSW,245,5.0,9.0,63,0.00,,,0.37,,2013-01-31 15:32:00,
2013-01-31 10:42:00,27.0,16.0,28.68,WSW,245,5.0,9.0,63,0.00,,,0.37,,2013-01-31 15:42:00,
2013-01-31 10:52:00,27.0,16.0,28.67,West,278,3.0,8.0,64,0.00,,,0.37,,2013-01-31 15:52:00,
2013-01-31 11:03:00,27.0,16.0,28.70,WSW,256,5.0,10.0,63,0.00,,,0.37,,2013-01-31 16:03:00,
2013-01-31 11:13:00,27.0,16.0,28.70,WSW,256,5.0,10.0,63,0.00,,,0.37,,2013-01-31 16:13:00,
2013-01-31 11:22:00,26.0,14.0,28.70,WSW,246,6.0,11.0,59,0.00,,,0.29,,2013-01-31 16:22:00,
2013-01-31 11:33:00,27.0,10.0,28.69,West,260,7.0,15.0,48,0.00,,,0.29,,2013-01-31 16:33:00,
2013-01-31 11:52:00,26.0,9.0,28.69,West,263,6.0,15.0,49,0.00,,,0.29,,2013-01-31 16:52:00,
2013-01-31 12:03:00,26.0,10.0,28.72,West,267,8.0,15.0,51,0.00,,,0.29,,2013-01-31 17:03:00,
2013-01-31 12:23:00,26.0,9.0,28.72,SSW,209,6.0,13.0,49,0.00,,,0.29,,2013-01-31 17:23:00,
2013-01-31 12:32:00,27.0,8.0,28.72,West,275,6.0,15.0,44,0.00,,,0.29,,2013-01-31 17:32:00,
2013-01-31 12:53:00,26.0,8.0,28.72,West,265,7.0,13.0,45,0.00,,,0.29,,2013-01-31 17:53:00,
2013-01-31 13:03:00,25.0,9.0,28.72,West,273,9.0,26.0,51,0.00,,,0.29,,2013-01-31 18:03:00,
2013-01-31 13:12:00,25.0,7.0,28.75,West,261,11.0,17.0,46,0.00,,,0.25,,2013-01-31 18:12:00,
2013-01-31 13:22:00,25.0,7.0,28.75,West,261,11.0,17.0,46,0.00,,,0.25,,2013-01-31 18:22:00,
2013-01-31 13:32:00,25.0,8.0,28.75,West,261,11.0,14.0,47,0.00,,,0.25,,2013-01-31 18:32:00,
2013-01-31 13:52:00,27.0,8.0,28.75,SW,228,7.0,15.0,44,0.00,,,0.25,,2013-01-31 18:52:00,
2013-01-31 14:02:00,26.0,7.0,28.75,WSW,250,7.0,13.0,44,0.00,,,0.25,,2013-01-31 19:02:00,
2013-01-31 14:22:00,27.0,9.0,28.72,WSW,247,7.0,13.0,46,0.00,,,0.25,,2013-01-31 19:22:00,
2013-01-31 14:33:00,27.0,9.0,28.75,WSW,258,7.0,10.0,45,0.00,,,0.25,,2013-01-31 19:33:00,
2013-01-31 14:42:00,27.0,9.0,28.75,WSW,258,7.0,10.0,45,0.00,,,0.25,,2013-01-31 19:42:00,
2013-01-31 14:52:00,27.0,9.0,28.75,WSW,255,6.0,10.0,45,0.00,,,0.25,,2013-01-31 19:52:00,
2013-01-31 15:02:00,28.0,8.0,28.75,WNW,296,5.0,10.0,43,0.00,,,0.25,,2013-01-31 20:02:00,
2013-01-31 15:12:00,28.0,8.0,28.75,WNW,296,5.0,10.0,43,0.00,,,0.25,,2013-01-31 20:12:00,
2013-01-31 15:22:00,27.0,8.0,28.75,WSW,253,6.0,9.0,43,0.00,,,0.21,,2013-01-31 20:22:00,
2013-01-31 15:32:00,27.0,9.0,28.75,West,263,7.0,13.0,47,0.00,,,0.21,,2013-01-31 20:32:00,
2013-01-31 15:42:00,27.0,9.0,28.75,West,263,7.0,13.0,47,0.00,,,0.21,,2013-01-31 20:42:00,
2013-01-31 15:52:00,26.0,10.0,28.75,WSW,258,4.0,13.0,51,0.00,,,0.21,,2013-01-31 20:52:00,
2013-01-31 16:02:00,28.0,13.0,28.75,WSW,255,5.0,12.0,52,0.00,,,0.21,,2013-01-31 21:02:00,
2013-01-31 16:12:00,28.0,13.0,28.75,WSW,255,5.0,12.0,52,0.00,,,0.21,,2013-01-31 21:12:00,
2013-01-31 16:22:00,27.0,12.0,28.75,West,262,5.0,10.0,53,0.00,,,0.21,,2013-01-31 21:22:00,
2013-01-31 16:32:00,27.0,15.0,28.75,SW,225,3.0,10.0,61,0.00,,,0.21,,2013-01-31 21:32:00,
2013-01-31 16:42:00,27.0,15.0,28.75,SW,225,3.0,10.0,61,0.00,,,0.21,,2013-01-31 21:42:00,
2013-01-31 16:52:00,26.0,13.0,28.78,WSW,253,4.0,6.0,58,0.00,,,0.21,,2013-01-31 21:52:00,
2013-01-31 17:03:00,26.0,14.0,28.75,WSW,257,5.0,8.0,59,0.00,,,0.21,,2013-01-31 22:03:00,
2013-01-31 17:11:00,26.0,14.0,28.75,WSW,257,5.0,8.0,59,0.00,,,0.21,,2013-01-31 22:11:00,
2013-01-31 17:22:00,27.0,15.0,28.75,SW,234,4.0,7.0,61,0.00,,,0.21,,2013-01-31 22:22:00,
2013-01-31 17:33:00,25.0,16.0,28.77,SW,215,3.0,7.0,68,0.00,,,0.21,,2013-01-31 22:33:00,
2013-01-31 17:42:00,25.0,16.0,28.77,SW,215,3.0,7.0,68,0.00,,,0.21,,2013-01-31 22:42:00,
2013-01-31 17:51:00,25.0,17.0,28.77,SW,232,4.0,6.0,70,0.00,,,0.21,,2013-01-31 22:51:00,
2013-01-31 18:03:00,25.0,16.0,28.74,SW,233,3.0,10.0,69,0.00,,,0.21,,2013-01-31 23:03:00,
2013-01-31 18:12:00,25.0,16.0,28.74,SW,233,3.0,10.0,69,0.00,,,0.21,,2013-01-31 23:12:00,
2013-01-31 18:22:00,24.0,15.0,28.77,SSW,209,4.0,8.0,69,0.00,,,0.21,,2013-01-31 23:22:00,
2013-01-31 18:32:00,25.0,17.0,28.77,West,280,3.0,9.0,72,0.00,,,0.21,,2013-01-31 23:32:00,
2013-01-31 18:42:00,25.0,17.0,28.77,West,280,3.0,9.0,72,0.00,,,0.21,,2013-01-31 23:42:00,
2013-01-31 18:52:00,24.0,18.0,28.77,WNW,282,5.0,6.0,79,0.00,,,0.21,,2013-01-31 23:52:00,
2013-01-31 19:02:00,23.0,18.0,28.77,SW,230,2.0,6.0,80,0.00,,,0.21,,2013-02-01 00:02:00,
2013-01-31 19:11:00,23.0,18.0,28.77,SW,230,2.0,6.0,80,0.00,,,0.21,,2013-02-01 00:11:00,
2013-01-31 19:22:00,23.0,18.0,28.77,West,262,3.0,3.0,80,0.00,,,0.21,,2013-02-01 00:22:00,
2013-01-31 19:32:00,23.0,17.0,28.77,West,259,3.0,4.0,79,0.00,,,0.21,,2013-02-01 00:32:00,
2013-01-31 19:42:00,23.0,17.0,28.77,West,259,3.0,4.0,79,0.00,,,0.21,,2013-02-01 00:42:00,
2013-01-31 19:52:00,23.0,16.0,28.77,West,270,3.0,5.0,73,0.00,,,0.21,,2013-02-01 00:52:00,
2013-01-31 20:01:00,23.0,15.0,28.77,West,263,3.0,5.0,72,0.00,,,0.21,,2013-02-01 01:01:00,
2013-01-31 20:11:00,24.0,16.0,28.80,NW,315,2.0,4.0,70,0.00,,,0.21,,2013-02-01 01:11:00,
2013-01-31 20:21:00,24.0,16.0,28.80,NW,315,2.0,4.0,70,0.00,,,0.21,,2013-02-01 01:21:00,
2013-01-31 20:32:00,24.0,15.0,28.80,WNW,291,4.0,6.0,67,0.00,,,0.21,,2013-02-01 01:32:00,
2013-01-31 20:42:00,24.0,15.0,28.80,WNW,291,4.0,6.0,67,0.00,,,0.21,,2013-02-01 01:42:00,
2013-01-31 20:52:00,24.0,15.0,28.80,WSW,251,3.0,8.0,67,0.00,,,0.21,,2013-02-01 01:52:00,
2013-01-31 21:02:00,24.0,13.0,28.80,WNW,282,5.0,10.0,61,0.00,,,0.21,,2013-02-01 02:02:00,
2013-01-31 21:11:00,24.0,13.0,28.80,WNW,282,5.0,10.0,61,0.00,,,0.21,,2013-02-01 02:11:00,
2013-01-31 21:21:00,24.0,11.0,28.80,WNW,289,5.0,10.0,58,0.00,,,0.08,,2013-02-01 02:21:00,
2013-01-31 21:32:00,24.0,11.0,28.80,WNW,289,5.0,10.0,58,0.00,,,0.08,,2013-02-01 02:32:00,
2013-01-31 21:42:00,24.0,11.0,28.80,WNW,289,5.0,10.0,58,0.00,,,0.08,,2013-02-01 02:42:00,
2013-01-31 21:52:00,24.0,9.0,28.80,WNW,286,5.0,9.0,52,0.00,,,0.08,,2013-02-01 02:52:00,
2013-01-31 22:02:00,24.0,9.0,28.80,West,274,6.0,11.0,53,0.00,,,0.08,,2013-02-01 03:02:00,
2013-01-31 22:21:00,24.0,10.0,28.80,WNW,300,5.0,10.0,54,0.00,,,0.08,,2013-02-01 03:21:00,
2013-01-31 22:33:00,23.0,9.0,28.80,WSW,247,4.0,4.0,55,0.00,,,0.08,,2013-02-01 03:33:00,
2013-01-31 22:51:00,23.0,9.0,28.80,WSW,247,4.0,4.0,55,0.00,,,0.08,,2013-02-01 03:51:00,
2013-01-31 23:02:00,23.0,10.0,28.80,West,270,4.0,5.0,56,0.00,,,0.08,,2013-02-01 04:02:00,
2013-01-31 23:21:00,23.0,10.0,28.80,West,280,4.0,5.0,57,0.00,,,0.04,,2013-02-01 04:21:00,
2013-01-31 23:32:00,21.0,13.0,28.79,WSW,247,7.0,8.0,70,0.00,,,0.04,,2013-02-01 04:32:00,
2013-01-31 23:42:00,21.0,13.0,28.79,WSW,247,7.0,8.0,70,0.00,,,0.04,,2013-02-01 04:42:00,
2013-01-31 23:51:00,21.0,12.0,28.79,North,0,4.0,8.0,69,0.00,,,0.04,,2013-02-01 04:51:00,